Weather History for KSAW - April, 2014

Change the Weather History Date:

Thursday, April 3, 2014

  Actual Average (KESC) Record (KESC)
Temperature  
Mean Temperature 22 °F -  
Max Temperature 30 °F 40 °F 59 °F (1963)
Min Temperature 14 °F 25 °F 3 °F (1954)
Degree Days  
Heating Degree Days 43    
Moisture  
Dew Point 18 °F    
Average Humidity 81    
Maximum Humidity 89    
Minimum Humidity 64    
Precipitation  
Precipitation 0.00 in - - ()
Sea Level Pressure  
Sea Level Pressure 30.14 in    
Wind  
Wind Speed 4 mph (NE)    
Max Wind Speed 13 mph    
Max Gust Speed -    
Visibility 10 miles    
Events Snow    
Averages and records for this station are not official NWS values.
T = Trace of Precipitation, MM = Missing Value Source: NWS Daily Summary

Daily Weather History Graph

Daily Weather History Graph

Search for Another Location

Airport or City:

Trip Planner

Search our weather history database for the weather conditions in past years. The results will help you decide how hot, cold, wet, or windy it might be!

Date:

Astronomy

Apr. 03, 2014 Rise Set
Actual Time 7:25 AM EDT 8:21 PM EDT
Civil Twilight 6:54 AM EDT 8:51 PM EDT
Nautical Twilight 6:18 AM EDT 9:28 PM EDT
Astronomical Twilight 5:40 AM EDT 10:06 PM EDT
Moon 9:42 AM EDT (4/3) No Moon Set
Length of Visible Light 13h 56m
Length of Day
12h 55m
Waxing Crescent, 17% of the Moon is Illuminated
Apr 3
Waxing Crescent
Apr 7
First Quarter
Apr 15
Full
Apr 22
Last Quarter
Apr 29
New

Hourly Weather History & Observations

Time (EDT) Temp. Windchill Dew Point Humidity Pressure Visibility Wind Dir Wind Speed Gust Speed Precip Events Conditions
12:17 AM 24.6 °F 18.8 °F 19.0 °F 79% 30.23 in 10.0 mi NE 4.6 mph - N/A   Clear
12:36 AM 24.4 °F 20.1 °F 18.5 °F 78% 30.23 in 10.0 mi East 3.5 mph - N/A   Clear
12:56 AM 23.7 °F - 18.5 °F 80% 30.24 in 10.0 mi Calm Calm - N/A   Clear
1:17 AM 23.0 °F 17.0 °F 18.3 °F 82% 30.23 in 10.0 mi NE 4.6 mph - N/A   Clear
1:36 AM 22.8 °F - 18.0 °F 82% 30.24 in 10.0 mi Calm Calm - N/A   Clear
1:57 AM 20.8 °F - 16.7 °F 84% 30.23 in 10.0 mi Calm Calm - N/A   Clear
2:16 AM 21.2 °F - 16.5 °F 82% 30.23 in 10.0 mi Calm Calm - N/A   Clear
2:36 AM 20.5 °F - 16.3 °F 84% 30.23 in 10.0 mi Calm Calm - N/A   Clear
2:57 AM 18.9 °F - 14.7 °F 84% 30.23 in 10.0 mi Calm Calm - N/A   Clear
3:16 AM 17.2 °F - 14.0 °F 87% 30.22 in 10.0 mi Calm Calm - N/A   Clear
3:36 AM 17.4 °F - 14.7 °F 89% 30.21 in 10.0 mi Calm Calm - N/A   Clear
3:56 AM 18.7 °F 13.5 °F 15.3 °F 87% 30.20 in 10.0 mi ENE 3.5 mph - N/A   Clear
4:16 AM 16.0 °F - 12.0 °F 84% 30.21 in 10.0 mi Calm Calm - N/A   Clear
4:36 AM 15.4 °F - 12.0 °F 86% 30.22 in 10.0 mi Calm Calm - N/A   Clear
4:56 AM 14.4 °F 8.6 °F 11.3 °F 88% 30.21 in 10.0 mi North 3.5 mph - N/A   Scattered Clouds
5:17 AM 15.1 °F 9.4 °F 12.2 °F 88% 30.21 in 10.0 mi North 3.5 mph - N/A   Clear
5:36 AM 14.0 °F - 11.1 °F 88% 30.21 in 10.0 mi Calm Calm - N/A   Clear
5:57 AM 15.6 °F - 12.7 °F 88% 30.22 in 10.0 mi Calm Calm - N/A   Mostly Cloudy
6:55 AM 23.0 °F - 17.6 °F 80% 30.20 in 10.0 mi Calm Calm - N/A   Scattered Clouds
7:50 AM 21.2 °F 14.9 °F 17.6 °F 86% 30.19 in 10.0 mi ENE 4.6 mph - N/A   Scattered Clouds
8:50 AM 23.0 °F 13.9 °F 19.4 °F 86% 30.18 in 10.0 mi ENE 8.1 mph - N/A   Overcast
9:50 AM 24.8 °F 17.9 °F 19.4 °F 80% 30.19 in 10.0 mi ENE 5.8 mph - N/A   Overcast
10:50 AM 26.6 °F 19.1 °F 21.2 °F 80% 30.17 in 10.0 mi East 6.9 mph - N/A   Overcast
11:55 AM 28.4 °F 23.3 °F 21.2 °F 74% 30.15 in 10.0 mi East 4.6 mph - N/A   Mostly Cloudy
12:50 PM 30.2 °F 21.9 °F 19.4 °F 64% 30.14 in 10.0 mi East 9.2 mph - N/A   Overcast
1:50 PM 30.2 °F 21.9 °F 19.4 °F 64% 30.14 in 10.0 mi NNE 9.2 mph - N/A   Overcast
2:50 PM 30.2 °F 23.4 °F 21.2 °F 69% 30.10 in 10.0 mi NE 6.9 mph - N/A   Mostly Cloudy
3:50 PM 30.2 °F 20.8 °F 23.0 °F 75% 30.08 in 10.0 mi North 11.5 mph - N/A   Overcast
4:50 PM 30.2 °F 20.2 °F 23.0 °F 75% 30.02 in 10.0 mi NNE 12.7 mph - N/A   Overcast
5:45 PM 28.4 °F 18.5 °F 23.0 °F 80% 29.99 in 10.0 mi NNE 11.5 mph - N/A   Overcast
6:46 PM 28.4 °F 19.1 °F 23.0 °F 80% 30.00 in 10.0 mi NE 10.4 mph - N/A   Overcast
7:45 PM 28.4 °F 18.5 °F 23.0 °F 80% 29.99 in 10.0 mi NNE 11.5 mph - N/A   Overcast
8:45 PM 28.4 °F 18.5 °F 23.0 °F 80% 29.98 in 10.0 mi NNE 11.5 mph - N/A   Overcast
9:45 PM 28.4 °F 18.5 °F 23.0 °F 80% 29.99 in 10.0 mi North 11.5 mph - N/A   Overcast
10:17 PM 28.0 °F 18.1 °F 23.4 °F 83% 29.97 in 10.0 mi NE 11.5 mph - N/A   Overcast
10:36 PM 28.0 °F 18.6 °F 23.2 °F 82% 29.95 in 10.0 mi NE 10.4 mph - N/A   Overcast
11:57 PM 28.4 °F 19.1 °F 24.8 °F 86% 29.92 in 7.0 mi NE 10.4 mph - N/A Snow Light Snow